Regional Weather Roundup
Issued by NWS Spokane, WA

Home | Current Version | Previous Version | Text Only | Print | Product List | Glossary On
Versions: 1 2 3 4 5 6 7 8 9 10 11 12 13 14 15 16 17 18 19 20 21 22 23 24 25 26 27 28 29 30 31 32 33 34 35 36 37 38 39 40 41 42 43 44 45 46 47 48 49 50
000
NZUS01 KOTX 020710
RWROTX
EASTERN WASHINGTON/NORTHERN IDAHO ROUNDUP
NATIONAL WEATHER SERVICE, SPOKANE WA
1200 AM PDT THU APR 02 2015

Note: "fair" indicated few or no clouds below 12,000 feet with no
significant weather and/or obstructions to visibility.

...NORTHEAST WASHINGTON AND NORTHERN IDAHO PANHANDLE...

CITY           SKY/WX    TMP DP  RH WIND       PRES   REMARKS
SPOKANE INTL   MOCLDY    35  32  88 S7        30.12R WCI  29
SPOKANE DOWNTO CLEAR     35  32  88 CALM      30.15R
COEUR D ALENE  CLEAR     34  28  80 S8        30.14R WCI  27
DEER PARK      CLEAR     25  24  96 CALM      30.14R
SANDPOINT      PTCLDY    30  30 100 CALM      30.14R
BONNERS FERRY  FAIR      32  28  86 CALM      30.10S

...SOUTHEAST WASHINGTON AND SOUTHERN IDAHO PANHANDLE...

CITY           SKY/WX    TMP DP  RH WIND       PRES   REMARKS
WALLA WALLA    PTCLDY    44  32  62 S15       30.21R
PULLMAN/MOSCOW MOCLDY    35  32  88 CALM      30.15S
LEWISTON       LGT RAIN  41  36  82 SE9       30.18S
LOWELL           N/A     38  36  92 CALM      30.22R

...COLUMBIA BASIN...

CITY           SKY/WX    TMP DP  RH WIND       PRES   REMARKS
EPHRATA        CLEAR     46  26  45 NW20      30.14R
MOSES LAKE     CLEAR     42  26  53 VRB3      30.17R
TRI CITIES     CLEAR     44  30  57 SE6       30.23R
HERMISTON      CLEAR     42  33  70 SW15      30.22R
PENDLETON      PTCLDY    41  30  65 W14G24    30.20R

...EAST SLOPES CASCADES...

CITY           SKY/WX    TMP DP  RH WIND       PRES   REMARKS
THE DALLES     CLEAR     45  33  63 NW8       30.29R
YAKIMA         PTCLDY    47  28  47 NW12      30.21R
ELLENSBURG     MOCLDY    42  30  62 NW16G26   30.20R
WENATCHEE      MOCLDY    46  25  43 W13       30.20R
OMAK           CLEAR     37  26  64 W7        30.18R

...SOUTHERN BRITISH COLUMBIA...

CITY           SKY/WX    TMP DP  RH WIND       PRES   REMARKS
PENTICTON      PTCLDY    32  28  86 VRB2      30.21R

...WESTERN MONTANA...

CITY           SKY/WX    TMP DP  RH WIND       PRES   REMARKS
MISSOULA       PTCLDY    28  24  85 CALM      30.11R

...NEIGHBORING CITIES...

CITY           SKY/WX    TMP DP  RH WIND       PRES   REMARKS
SEATTLE        PTCLDY    44  41  89 E5        30.34R
CALGARY        MOCLDY    30  21  69 NW10      30.02R WCI  21



USA.gov is the U.S. government's official web portal to all federal, state and local government web resources and services.